Location: Austin
(30.3000°N, 97.7500°W)
Time: 23:40:16
(UTC-05:00)

ARGOS Delta rocket - Pass Details

Date: 05 September 2024
Orbit: 632 x 831 km, 96.5° (Epoch: 14 September)

Event Time Altitude Azimuth Distance (km) Brightness Sun altitude
Exits shadow 21:06:10 10° 163° (SSE) 2,430 6.3 -17.2°
Reaches altitude 10° 21:06:14 10° 163° (SSE) 2,403 6.2 -17.3°
Maximum altitude 21:11:35 76° 78° (ENE) 824 4.0 -18.4°
Drops below altitude 10° 21:16:43 10° 354° (N) 2,317 6.8 -19.4°
Sets 21:18:59 0° 353° (N) 3,217 7.6 -19.9°
